EW8655 Weather Reports


Display with metric or nautical units.
time (UTC)temp
F
wind
direction
speed
MPH
gust
MPH
rain 1hr
in
rain 24hr
in
rain mn
in
humidity
%
barometer
mb
20260506134505 43 89 7.0 14.0 0.00 0.00 0.00 100 1009.1
20260506133506 43 94 9.0 12.0 0.00 0.00 0.00 100 1008.1
20260506133006 43 96 9.0 12.0 0.00 0.00 0.00 100 1009.1
20260506132506 43 103 9.0 12.0 0.00 0.00 0.00 100 1008.1
20260506132006 43 98 7.0 12.0 0.00 0.00 0.00 100 1008.1
20260506131506 43 106 8.0 12.0 0.00 0.00 0.00 100 1008.1
20260506131006 44 100 7.0 9.0 0.00 0.00 0.00 100 1008.1
20260506130506 44 117 7.0 9.0 0.00 0.00 0.00 100 1008.1
20260506130006 44 97 5.0 12.0 0.00 0.00 0.00 100 1008.1
20260506125505 43 114 5.0 12.0 0.00 0.00 0.00 100 1008.1
20260506125006 44 107 7.0 12.0 0.00 0.00 0.00 100 1008.1
20260506124006 44 130 7.0 12.0 0.00 0.00 0.00 100 1008.1
20260506122505 43 88 9.0 14.0 0.00 0.00 0.00 100 1008.1
20260506122007 44 95 9.0 14.0 0.00 0.00 0.00 100 1008.1
20260506121506 44 99 9.0 12.0 0.00 0.00 0.00 100 1008.1
20260506121007 43 84 7.0 12.0 0.00 0.00 0.00 100 1008.1
20260506120506 43 86 9.0 14.0 0.00 0.00 0.00 100 1008.1
20260506120006 43 98 7.0 14.0 0.00 0.00 0.00 100 1008.1
20260506115506 43 78 9.0 12.0 0.00 0.00 0.00 100 1008.1
20260506115006 43 104 9.0 12.0 0.00 0.00 0.00 100 1008.1
20260506114006 43 85 9.0 12.0 0.00 0.00 0.00 100 1008.1
20260506113506 43 91 7.0 12.0 0.00 0.00 0.00 100 1008.1
20260506113006 43 85 9.0 12.0 0.00 0.00 0.00 100 1008.1
20260506112506 43 95 8.0 14.0 0.00 0.00 0.00 100 1008.1
20260506112006 44 113 9.0 14.0 0.00 0.00 0.00 100 1008.1
20260506110506 44 84 7.0 12.0 0.00 0.00 0.00 100 1008.1
20260506110006 44 128 7.0 12.0 0.00 0.00 0.00 100 1008.1
20260506105506 44 85 9.0 12.0 0.00 0.00 0.00 100 1008.1
20260506104507 44 88 9.0 14.0 0.00 0.00 0.00 100 1008.1
20260506104008 44 90 9.0 14.0 0.00 0.00 0.00 100 1008.1
20260506103508 44 99 9.0 14.0 0.00 0.00 0.00 100 1008.1
20260506102507 43 100 9.0 14.0 0.00 0.00 0.00 100 1008.1
20260506102008 43 82 9.0 14.0 0.00 0.00 0.00 100 1008.1
20260506101507 43 100 9.0 14.0 0.00 0.00 0.00 100 1008.1
20260506100509 43 92 11.0 14.0 0.00 0.00 0.00 100 1008.1
20260506095008 44 82 9.0 14.0 0.00 0.00 0.00 100 1008.1
20260506094508 43 73 9.0 14.0 0.00 0.00 0.00 100 1008.6
20260506094008 44 80 9.0 14.0 0.00 0.00 0.00 100 1008.1
20260506093008 44 84 9.0 14.0 0.00 0.00 0.00 100 1008.1
20260506092507 44 87 11.0 14.0 0.00 0.00 0.00 100 1008.1
20260506092009 44 70 10.0 18.0 0.00 0.00 0.00 100 1008.1
20260506091507 44 79 12.0 18.0 0.00 0.00 0.00 100 1008.1
20260506091008 44 88 9.0 16.0 0.00 0.00 0.00 100 1008.1
20260506090508 44 65 12.0 16.0 0.00 0.00 0.00 100 1008.1
20260506085507 44 79 12.0 16.0 0.00 0.00 0.00 100 1008.1
20260506085008 44 87 12.0 16.0 0.00 0.00 0.00 100 1008.1
20260506084507 44 89 12.0 16.0 0.00 0.00 0.00 100 1008.1
20260506084008 44 93 12.0 16.0 0.00 0.00 0.00 100 1008.1
20260506083508 44 82 10.0 14.0 0.00 0.00 0.00 100 1008.1
20260506082507 44 83 9.0 14.0 0.00 0.00 0.00 100 1008.1
20260506082009 45 61 9.0 14.0 0.00 0.00 0.00 100 1008.1
20260506081508 45 84 9.0 14.0 0.00 0.00 0.00 100 1008.1
20260506081008 45 88 9.0 14.0 0.00 0.00 0.00 100 1008.1
20260506080507 45 84 12.0 16.0 0.00 0.00 0.00 100 1008.1
20260506073508 45 96 9.0 14.0 0.00 0.00 0.00 100 1008.1
20260506073008 45 90 9.0 14.0 0.00 0.00 0.00 100 1008.1
20260506072507 45 88 12.0 14.0 0.00 0.00 0.00 100 1008.1
20260506072007 45 78 12.0 14.0 0.00 0.00 0.00 100 1008.1
20260506071506 45 90 11.0 14.0 0.00 0.00 0.00 100 1008.1
20260506070508 45 106 8.0 16.0 0.00 0.00 0.00 100 1008.1
20260506062506 45 94 9.0 12.0 0.00 0.00 0.00 100 1008.1
20260506062008 45 67 7.0 12.0 0.00 0.00 0.00 100 1009.1
20260506061507 45 87 7.0 14.0 0.00 0.00 0.00 100 1009.1
20260506061007 45 78 9.0 14.0 0.00 0.00 0.00 100 1008.9
20260506060507 45 70 9.0 14.0 0.00 0.00 0.00 100 1008.1
20260506051007 46 119 5.0 9.0 0.00 0.00 0.00 100 1009.1
20260506050507 46 112 7.0 9.0 0.00 0.00 0.00 100 1009.1
20260506045007 46 90 9.0 12.0 0.00 0.00 0.00 100 1009.1
20260506044507 46 92 7.0 12.0 0.00 0.00 0.00 100 1008.1
20260506044007 46 84 6.0 12.0 0.00 0.00 0.00 100 1008.1
20260506043507 46 70 6.0 9.0 0.00 0.00 0.00 100 1008.1
20260506043007 47 97 7.0 9.0 0.00 0.00 0.00 100 1008.1
20260506042508 47 68 7.0 12.0 0.00 0.00 0.00 100 1008.1
20260506042008 47 85 7.0 12.0 0.00 0.00 0.00 100 1008.1
20260506041507 47 86 7.0 9.0 0.00 0.00 0.00 100 1008.1
20260506040507 47 92 7.0 9.0 0.00 0.00 0.00 100 1008.1
20260506040007 47 84 7.0 9.0 0.00 0.00 0.00 99 1008.1
20260506035506 47 104 7.0 9.0 0.00 0.00 0.00 99 1008.1
20260506035007 47 92 5.0 7.0 0.00 0.00 0.00 99 1008.1
20260506034507 47 92 0.0 2.0 0.00 0.00 0.00 99 1009.1
20260506034007 47 108 0.0 5.0 0.00 0.00 0.00 99 1008.7
20260506032506 47 90 2.0 7.0 0.00 0.00 0.00 99 1009.1
20260506032007 47 101 2.0 5.0 0.00 0.00 0.00 99 1009.1
20260506031507 47 131 0.0 2.0 0.00 0.00 0.00 99 1009.1
20260506031007 47 107 0.0 5.0 0.00 0.00 0.00 99 1009.1
20260506030507 47 99 0.0 5.0 0.00 0.00 0.00 99 1009.1
20260506030006 48 128 2.0 5.0 0.00 0.00 0.00 99 1009.1
20260506025507 48 98 2.0 5.0 0.00 0.00 0.00 99 1009.1
20260506024507 48 110 0.0 5.0 0.00 0.00 0.00 99 1009.1
20260506024008 48 103 0.0 0.0 0.00 0.00 0.00 98 1009.1
20260506023508 47 113 0.0 0.0 0.00 0.00 0.00 98 1009.1
20260506022506 47 131 0.0 0.0 0.00 0.00 0.00 98 1009.1
20260506022008 47 106 0.0 0.0 0.00 0.00 0.00 98 1009.1
20260506021007 47 139 0.0 0.0 0.00 0.00 0.00 97 1009.1
20260506020507 47 144 0.0 0.0 0.00 0.00 0.00 97 1009.1
20260506020006 47 98 0.0 0.0 0.00 0.00 0.00 97 1009.1
20260506015507 47 81 0.0 0.0 0.00 0.00 0.00 97 1009.1
20260506015007 47 39 0.0 2.0 0.00 0.00 0.00 97 1009.1
20260506014507 47 282 0.0 5.0 0.00 0.00 0.00 96 1009.1
20260506014008 47 271 2.0 5.0 0.00 0.00 0.00 96 1009.1
20260506013007 48 266 5.0 5.0 0.00 0.00 0.00 96 1009.1
20260506012506 47 227 3.0 5.0 0.00 0.00 0.00 96 1009.1
20260506012007 47 233 5.0 5.0 0.00 0.00 0.00 96 1009.1
20260506011507 47 257 5.0 5.0 0.00 0.00 0.00 96 1009.1
20260506011007 47 237 5.0 5.0 0.00 0.00 0.00 96 1009.1
20260506010507 47 234 3.0 5.0 0.00 0.00 0.00 95 1009.1
20260506005007 47 233 5.0 5.0 0.00 0.00 0.00 95 1009.1
20260506004506 47 234 2.0 5.0 0.00 0.00 0.00 95 1008.6
20260506004007 47 227 5.0 7.0 0.00 0.00 0.00 94 1008.1
20260506003506 47 242 5.0 7.0 0.00 0.00 0.00 94 1008.1
20260506003007 47 240 5.0 7.0 0.00 0.00 0.00 94 1009.1
20260506002507 47 227 5.0 5.0 0.00 0.00 0.00 94 1008.1
20260506002007 47 225 5.0 5.0 0.00 0.00 0.00 93 1008.1
20260506001507 47 231 5.0 5.0 0.00 0.00 0.00 93 1008.1
20260506001007 47 202 5.0 5.0 0.00 0.00 0.00 93 1008.1
20260506000507 47 225 2.0 5.0 0.00 0.00 0.00 92 1008.1
20260506000006 47 197 0.0 2.0 0.00 0.00 0.00 92 1008.1
20260505235006 47 289 0.0 2.0 0.00 0.00 0.00 91 1008.1
20260505234507 47 40 0.0 5.0 0.00 0.00 0.00 91 1008.1
20260505234007 47 306 3.0 5.0 0.00 0.00 0.00 90 1008.1
20260505233007 47 275 5.0 7.0 0.00 0.00 0.00 89 1008.1
20260505232006 47 282 5.0 9.0 0.00 0.00 0.00 87 1008.1
20260505231506 47 300 7.0 12.0 0.00 0.00 0.00 87 1008.1
20260505231007 47 281 7.0 12.0 0.00 0.00 0.00 86 1008.1
20260505230507 48 282 8.0 12.0 0.00 0.00 0.00 85 1008.1
20260505230007 48 295 7.0 9.0 0.00 0.00 0.00 84 1008.1
20260505225506 48 302 5.0 9.0 0.00 0.00 0.00 83 1007.7
20260505225006 48 289 5.0 9.0 0.00 0.00 0.00 82 1007.1
20260505224506 48 311 5.0 9.0 0.00 0.00 0.00 81 1007.1
20260505224007 48 312 5.0 12.0 0.00 0.00 0.00 80 1007.1
20260505223507 49 294 9.0 12.0 0.00 0.00 0.00 79 1007.1
20260505223007 49 298 9.0 14.0 0.00 0.00 0.00 78 1007.1
20260505222507 49 304 9.0 14.0 0.00 0.00 0.00 77 1007.1
20260505222007 50 299 8.0 14.0 0.00 0.00 0.00 77 1007.1
20260505220006 52 289 9.0 14.0 0.00 0.00 0.00 76 1006.1
20260505215506 52 287 9.0 14.0 0.00 0.00 0.00 75 1006.7
20260505215006 52 289 9.0 14.0 0.00 0.00 0.00 74 1006.1
20260505214506 52 288 10.0 16.0 0.00 0.00 0.00 72 1006.1
20260505214007 53 286 12.0 16.0 0.00 0.00 0.00 71 1006.1
20260505213507 53 287 9.0 16.0 0.00 0.00 0.00 70 1006.1
20260505213006 54 301 9.0 14.0 0.00 0.00 0.00 69 1005.1
20260505212007 54 293 8.0 16.0 0.00 0.00 0.00 69 1005.1
20260505211506 55 293 10.0 16.0 0.00 0.00 0.00 70 1004.3
20260505211006 55 293 10.0 18.0 0.00 0.00 0.00 69 1004.1
20260505210507 55 334 11.0 18.0 0.00 0.00 0.00 69 1004.1
20260505210006 56 302 10.0 18.0 0.00 0.00 0.00 69 1004.1
20260505205506 58 306 9.0 18.0 0.00 0.00 0.00 68 1004.1
20260505205006 60 339 12.0 16.0 0.00 0.00 0.00 67 1004.1
20260505204506 60 288 12.0 16.0 0.00 0.00 0.00 67 1003.1
20260505204007 61 287 9.0 16.0 0.00 0.00 0.00 66 1003.1
20260505203507 61 297 7.0 14.0 0.00 0.00 0.00 67 1003.1
20260505203006 61 304 7.0 14.0 0.00 0.00 0.00 67 1003.1
20260505202506 61 302 7.0 14.0 0.00 0.00 0.00 67 1003.1
20260505202006 62 308 5.0 12.0 0.00 0.00 0.00 67 1002.6
20260505201506 62 310 5.0 16.0 0.00 0.00 0.00 67 1003.1
20260505201006 62 279 11.0 16.0 0.00 0.00 0.00 67 1003.1
20260505200006 62 300 12.0 18.0 0.00 0.00 0.00 67 1002.3
20260505195006 61 300 10.0 14.0 0.00 0.00 0.00 67 1003.1
20260505194506 62 300 10.0 14.0 0.00 0.00 0.00 67 1003.1
20260505194006 62 287 11.0 14.0 0.00 0.00 0.00 67 1003.1
20260505193507 61 290 12.0 14.0 0.00 0.00 0.00 67 1002.6
20260505193007 61 282 12.0 14.0 0.00 0.00 0.00 67 1002.8
20260505192007 62 291 9.0 14.0 0.00 0.00 0.00 67 1002.1
20260505191507 62 312 7.0 12.0 0.00 0.00 0.00 67 1002.1
20260505191007 61 284 8.0 12.0 0.00 0.00 0.00 68 1002.1
20260505190506 61 289 7.0 12.0 0.00 0.00 0.00 68 1002.1
20260505185507 61 317 7.0 16.0 0.00 0.00 0.00 66 1002.1
20260505185006 61 298 9.0 18.0 0.00 0.00 0.00 65 1002.1
20260505184506 62 311 15.0 29.0 0.00 0.00 0.00 64 1002.1
20260505184007 68 286 20.0 29.0 0.00 0.00 0.00 61 1002.1
20260505183507 69 256 22.0 33.0 0.00 0.00 0.00 61 1001.1
20260505183006 69 252 26.0 33.0 0.00 0.00 0.00 61 1001.1
20260505182506 69 255 26.0 33.0 0.00 0.00 0.00 61 1000.6
20260505181507 69 240 26.0 33.0 0.00 0.00 0.00 61 1001.1
20260505181006 69 250 27.0 36.0 0.00 0.00 0.00 61 1001.1
20260505180507 69 246 29.0 36.0 0.00 0.00 0.00 61 1000.6
20260505180006 69 234 24.0 36.0 0.00 0.00 0.00 61 1000.3
20260505175506 69 242 26.0 36.0 0.00 0.00 0.00 61 1001.1
20260505175006 69 239 26.0 43.0 0.00 0.00 0.00 61 1001.1
20260505174506 69 243 28.0 43.0 0.00 0.00 0.00 62 1001.1
20260505174007 69 239 27.0 36.0 0.00 0.00 0.00 62 1000.3
20260505173506 69 249 30.0 36.0 0.00 0.00 0.00 62 1001.1
20260505173006 69 257 30.0 33.0 0.00 0.00 0.00 62 1000.8
20260505172505 70 253 25.0 31.0 0.00 0.00 0.00 62 1000.6
20260505172006 69 244 24.0 29.0 0.00 0.00 0.00 62 1001.1
20260505171507 69 253 22.0 38.0 0.00 0.00 0.00 63 1001.1
20260505171006 69 247 26.0 38.0 0.00 0.00 0.00 63 1001.1
20260505170507 68 239 28.0 36.0 0.00 0.00 0.00 63 1001.1
20260505170006 68 250 25.0 36.0 0.00 0.00 0.00 63 1000.1
20260505165006 68 257 26.0 36.0 0.00 0.00 0.00 63 1000.1
20260505164506 68 251 26.0 36.0 0.00 0.00 0.00 63 1000.7
20260505164006 68 245 22.0 26.0 0.00 0.00 0.00 63 1001.1
20260505163506 68 262 20.0 26.0 0.00 0.00 0.00 64 1001.1
20260505163008 68 259 20.0 26.0 0.00 0.00 0.00 64 1001.1
20260505162506 68 261 20.0 24.0 0.00 0.00 0.00 64 1001.1
20260505162007 68 257 19.0 26.0 0.00 0.00 0.00 64 1001.1
20260505161506 68 239 21.0 26.0 0.00 0.00 0.00 64 1001.1
20260505161006 68 254 20.0 26.0 0.00 0.00 0.00 64 1001.1
20260505160506 68 256 22.0 26.0 0.00 0.00 0.00 64 1001.1
20260505153006 68 246 18.0 22.0 0.00 0.00 0.00 65 1000.1
20260505152506 68 235 18.0 26.0 0.00 0.00 0.00 65 1000.1
20260505152006 68 254 21.0 26.0 0.00 0.00 0.00 65 1000.1
20260505151506 68 236 20.0 26.0 0.00 0.00 0.00 65 1000.1
20260505151006 67 237 21.0 26.0 0.00 0.00 0.00 65 1000.1
20260505150506 68 249 22.0 36.0 0.00 0.00 0.00 65 1000.1
20260505140506 71 233 20.0 33.0 0.00 0.00 0.00 63 998.6